Regional Weather Roundup
Issued by NWS

Home | Current Version | Previous Version | Text Only | Print | Product List | Glossary Off
Versions: 1 2 3 4 5 6 7 8 9 10 11 12 13 14 15 16 17 18 19 20 21 22 23 24 25 26 27 28 29 30 31 32 33 34 35 36 37 38 39 40 41 42 43 44 45 46 47 48 49 50

020
ASUS44 KJAN 270003
RWRMS

MISSISSIPPI HOURLY WEATHER ROUNDUP
NATIONAL WEATHER SERVICE JACKSON MS
600 PM CST THU FEB 26 2015

NOTE: "FAIR: INDICATES FEW OR NO CLOUDS BELOW 12,000 FEET WITH NO
SIGNIFICANT WEATHER AND/OR OBSTRUCTIONS TO VISIBILITY.

MSZ001>002-007>008-010>013-018>021-025>028-034>036-270100-
NORTHWEST MISSISSIPPI

CITY           SKY/WX    TMP DP  RH WIND       PRES   REMARKS
CLARKSDALE     CLOUDY    32  27  80 N16       30.32R WCI  21
CLEVELAND      CLOUDY    33  30  89 N14       30.29R WCI  23
GREENWOOD        N/A    N/A N/A N/A MISG      30.26R
GREENVILLE     CLOUDY    34  28  79 N13       30.28R WCI  25
6HR MIN TEMP:  33; 6HR MAX TEMP:  35;

OLIVE BRANCH   CLOUDY    30  30 100 N14G23    30.28R WCI  20
OXFORD         CLOUDY    32  27  80 NW14      30.25R WCI  22
TUNICA         CLOUDY    32  27  80 N17       30.32R WCI  21
$$

MSZ003>006-009-014>017-022>024-029>033-037>039-270100-
NORTHEAST MISSISSIPPI

CITY           SKY/WX    TMP DP  RH WIND       PRES   REMARKS
COLUMBUS AFB   CLEAR     36  32  85 W8        30.19R WCI  30
6HR MIN TEMP:  34; 6HR MAX TEMP:  39; 6HR PCP:  0.16;

CORINTH        CLOUDY    37  27  65 NW12      30.21R WCI  30
GOLDN TRIANGLE PTCLDY    37  30  75 NW7       30.19R WCI  32
STARKVILLE     MOCLDY    34  32  93 W5        30.21S WCI  30
TUPELO         CLOUDY    38  31  76 NW3       30.20R
6HR MIN TEMP:  38; 6HR MAX TEMP:  40;

$$

MSZ040-058-270100-
CENTRAL MISSISSIPPI

CITY           SKY/WX    TMP DP  RH WIND       PRES   REMARKS
JACKSON INTL   CLOUDY    35  30  82 N13       30.23R WCI  26
6HR MIN TEMP:  35; 6HR MAX TEMP:  47;

JACKSON HAWKNS CLOUDY    34  29  82 N12       30.24R WCI  25
6HR MIN TEMP:  34; 6HR MAX TEMP:  46;

MERIDIAN KEY   CLEAR     41  28  60 N12       30.18R
6HR MIN TEMP:  41; 6HR MAX TEMP:  49;

MERIDIAN NAS   PTCLDY    41  28  60 N8        30.19R
6HR MIN TEMP:  41; 6HR MAX TEMP:  49;

VICKSBURG      CLOUDY    35  30  82 N10       30.28R WCI  27
6HR MIN TEMP:  35; 6HR MAX TEMP:  41;

$$

MSZ059>079-270100-
SOUTH MISSISSIPPI

CITY           SKY/WX    TMP DP  RH WIND       PRES   REMARKS
BROOKHAVEN     FAIR      41  34  75 N12       30.20R
HATTIESBURG    CLEAR     47  30  51 N7        30.16R
6HR MIN TEMP:  40; 6HR MAX TEMP:  50;

MCCOMB         CLEAR     44  32  62 N13       30.17R
6HR MIN TEMP:  40; 6HR MAX TEMP:  51;

NATCHEZ        CLOUDY    37  30  75 N15       30.24R WCI  28
6HR MIN TEMP:  37; 6HR MAX TEMP:  45;

PINE BELT      CLEAR     43  28  56 N7        30.16R
6HR MIN TEMP:  39; 6HR MAX TEMP:  50;

$$

MSZ080>082-270100-
COASTAL MISSISSIPPI

CITY           SKY/WX    TMP DP  RH WIND       PRES   REMARKS
BILOXI         MOCLDY    47  35  62 N12       30.12R
6HR MIN TEMP:  45; 6HR MAX TEMP:  49;

PASCAGOULA     MOCLDY    46  36  68 N3        30.12R
6HR MIN TEMP:  46; 6HR MAX TEMP:  50;

GULFPORT       MOCLDY    46  34  62 N9        30.12R
6HR MIN TEMP:  44; 6HR MAX TEMP:  49;

$$



USA.gov is the U.S. government's official web portal to all federal, state and local government web resources and services.